Location: Ambrosina
(19.9365°S, 43.9833°W)
Time: 02:03:09
(UTC+00:00)

Cosmos 2237 Rocket - Pass Details

Date: 11 May 2021
Orbit: 836 x 848 km, 71.0° (Epoch: 20 June)

Event Time Altitude Azimuth Distance (km) Brightness Sun altitude
Rises 21:01:32 0° 344° (NNW) 3,371 5.8 -8.2°
Reaches altitude 10° 21:03:57 10° 344° (NNW) 2,445 5.1 -8.7°
Maximum altitude 21:09:35 89° 75° (ENE) 849 2.2 -10.0°
Drops below altitude 10° 21:15:17 10° 162° (SSE) 2,478 4.3 -11.3°
Sets 21:17:45 0° 162° (SSE) 3,420 5.0 -11.8°
